Skip Page Navigation
NASA JPL Caltech
NASA Logo - Jet Propulsion Laboratory + View the NASA Portal
+ Center for Near-Earth Object Studies
JPL Home Earth Solar System Stars & Galaxies Technology
JPL Solar System Dynamics
BODIES ORBITS EPHEMERIDES TOOLS PHYSICAL DATA DISCOVERY FAQ SITE MAP
JPL Small-Body Database Browser
Search: [ help ]  
359506 (2010 RV7)
Classification: Main-belt Asteroid          SPK-ID: 2359506
Ephemeris | Orbit Diagram | Orbital Elements | Mission Design | Physical Parameters | Discovery Circumstances | Close-Approach Data ]

[ hide orbit diagram ]

For accurate long-term ephemerides, please instead use our Horizons system.This orbit viewer was implemented using two-body methods, and hence should not be used for determining accurate long-term trajectories (over several years or decades) or planetary encounter circumstances.


[ revert to old Java-based viewer ]

Orbital Elements at Epoch 2459000.5 (2020-May-31.0) TDB
Reference: JPL 10 (heliocentric ecliptic J2000)
 Element Value Uncertainty (1-sigma)   Units 
e .2083178411410654 4.2361e-08  
a 2.549062273589236 2.0586e-08 au
q 2.01804712382099 1.0597e-07 au
i 5.595662563256702 1.1043e-05 deg
node 189.8628081783592 8.6131e-05 deg
peri 54.26314178343686 9.3853e-05 deg
M 219.8876860742403 4.0088e-05 deg
tp 2459579.052666610938
(2021-Dec-30.55266661)
0.0001699 TDB
period 1486.514312298754
4.07
1.8008e-05
4.93e-08
d
yr
n .2421772848209541 2.9338e-09 deg/d
Q 3.080077423357481 2.4875e-08 au
  Orbit Determination Parameters
   # obs. used (total)      118  
   data-arc span      9265 days (25.37 yr)  
   first obs. used      1993-05-20  
   last obs. used      2018-10-01  
   planetary ephem.      DE431  
   SB-pert. ephem.      SB431-N16  
   condition code      0  
   norm. resid. RMS      .55126  
   source      ORB  
   producer      Otto Matic  
   solution date      2019-Jul-14 14:09:58  

Additional Information
 Earth MOID = 1.01144 au 
 Jupiter MOID = 1.95236 au 
 T_jup = 3.404 
[ show covariance matrix ]

Ephemeris | Orbit Diagram | Orbital Elements | Mission Design | Physical Parameters | Discovery Circumstances | Close-Approach Data ]

Physical Parameter Table
Parameter Symbol Value Units Sigma Reference Notes
absolute magnitude H 17.4   n/a MPO460415  

359506 (2010 RV7)          Discovered 2001-Mar-04 by Spacewatch at Kitt Peak
Reference: 20130327/Numbers.arcLast Updated: 2013-03-29

[ show close-approach data ]
Alternate Designations
 2010 RV7 = 2005 GO120 = 2009 DF8 
Ephemeris | Orbit Diagram | Orbital Elements | Mission Design | Physical Parameters | Discovery Circumstances | Close-Approach Data ]
ABOUT SSD CREDITS/AWARDS PRIVACY/COPYRIGHT GLOSSARY LINKS
FirstGov 2020-Aug-09 05:43 UT
(server date/time)  
NASA Home Page
Site Manager:   Ryan S. Park
Webmaster  Alan B. Chamberlin